This demonstration page uses our WeatherBlox Daily Observations layout. Learn more.

Left ArrowRight Arrow

39.51506, -84.39828

Hourly Observations for January 23, 2019

Temp ( °F °C ) Dew Point ( °F °C ) Humidity (%) Winds ( mph kmh ) Pressure ( in mb ) Visibility ( mi km ) Precip ( " mm )
12:15 am 00:15 Cloudy 43 6 29 -1.6 59 59 SSW 12 19 30.06 1018 10 16 0.00 0.00
12:35 am 00:35 Cloudy 43 5.9 30 -1.3 60 60 S 12 19 30.03 1017 10 16 0.00 0.00
12:55 am 00:55 Cloudy 43 6.1 30 -1.1 60 60 S 9 15 30.03 1017 10 16 0.00 0.00
1:15 am 01:15 Cloudy 43 5.9 31 -0.8 62 62 S 9 15 30.03 1017 10 16 0.00 0.00
1:35 am 01:35 Cloudy 42 5.8 31 -0.6 64 64 S 12 19 30.03 1017 10 16 0.00 0.00
1:55 am 01:55 Cloudy 42 5.7 31 -0.4 65 65 S 10 17 30.03 1017 10 16 0.00 0.00
2:15 am 02:15 Cloudy 42 5.6 32 -0.1 67 67 S 10 17 30.00 1016 10 16 0.00 0.00
2:35 am 02:35 Cloudy 42 5.6 33 0.3 69 69 S 8 13 30.00 1016 10 16 0.00 0.00
2:55 am 02:55 Cloudy with Drizzle 42 5.6 33 0.6 71 71 S 9 15 30.00 1016 10 16 0.00 0.00
3:15 am 03:15 Cloudy with Light Rain 42 5.3 35 1.5 77 77 S 10 17 30.00 1016 10 16 0.00 0.00
3:35 am 03:35 Cloudy with Light Rain 42 5.6 35 1.7 76 76 S 12 19 29.97 1015 10 16 0.00 0.00
3:55 am 03:55 Cloudy with Drizzle 42 5.8 36 2 77 77 S 14 22 29.97 1015 10 16 0.00 0.00
4:15 am 04:15 Cloudy with Light Rain 42 5.7 37 2.5 80 80 S 14 22 29.94 1014 10 16 0.00 0.00
4:35 am 04:35 Cloudy with Light Rain 42 5.8 37 2.9 82 82 S 13 20 29.94 1014 10 16 0.00 0.00
4:55 am 04:55 Cloudy with Light Rain 42 5.7 38 3.1 84 84 S 12 19 29.94 1014 10 16 0.00 0.00
5:15 am 05:15 Cloudy with Light Rain 42 5.8 38 3.3 84 84 S 13 20 29.91 1013 10 16 0.00 0.00
5:35 am 05:35 Cloudy with Light Rain 43 6 38 3.5 84 84 S 14 22 29.91 1013 10 16 0.00 0.00
5:55 am 05:55 Cloudy with Light Rain 43 6.1 39 3.8 85 85 S 13 20 29.88 1012 10 16 0.00 0.00
6:15 am 06:15 Cloudy with Light Rain 43 6.1 39 4.1 87 87 S 13 20 29.88 1012 10 16 0.00 0.00
6:35 am 06:35 Cloudy with Light Rain 42 5.8 39 4.1 89 89 S 12 19 29.88 1012 10 16 0.01 0.25
6:55 am 06:55 Cloudy with Light Rain 43 6 40 4.4 90 90 S 13 20 29.85 1011 10 16 0.01 0.25
7:15 am 07:15 Cloudy with Light Rain 43 6.2 40 4.4 88 88 S 13 20 29.85 1011 10 16 0.01 0.25
7:35 am 07:35 Cloudy with Light Rain 43 6.1 40 4.5 90 90 S 13 20 29.85 1011 10 16 0.02 0.51
7:55 am 07:55 Cloudy with Light Rain 44 6.4 41 5 91 91 S 12 19 29.85 1011 10 16 0.02 0.51
8:15 am 08:15 Cloudy with Light Rain 43 6.2 41 5 92 92 S 9 15 29.85 1011 5 8 0.01 0.25
8:35 am 08:35 Cloudy with Light Rain 43 6.3 41 5.2 93 93 S 8 13 29.85 1011 10 16 0.01 0.25
8:55 am 08:55 Cloudy with Light Rain 43 6.3 42 5.3 93 93 S 12 19 29.85 1011 5 8 0.04 1.02
9:15 am 09:15 Cloudy with Rain 44 6.4 42 5.5 94 94 S 10 17 29.85 1011 5 8 0.03 0.76
9:35 am 09:35 Cloudy with Rain 44 6.7 43 5.9 95 95 S 12 19 29.85 1011 4 6 0.07 1.78
9:55 am 09:55 Cloudy with Light Rain 45 7 44 6.4 96 96 S 12 19 29.85 1011 5 8 0.11 2.79
10:15 am 10:15 Cloudy with Light Rain 45 7.3 44 6.6 95 95 S 12 19 29.85 1011 7 11 0.03 0.76
10:35 am 10:35 Cloudy with Light Rain 46 7.5 44 6.6 94 94 S 14 22 29.85 1011 7 11 0.05 1.27
10:55 am 10:55 Cloudy with Rain 46 7.7 44 6.8 94 94 S 8 13 29.85 1011 7 11 0.06 1.52
11:15 am 11:15 Cloudy with Light Rain 47 8.4 46 7.5 94 94 S 13 20 29.85 1011 7 11 0.01 0.25
11:35 am 11:35 Cloudy with Light Rain 48 8.8 46 7.7 93 93 S 13 20 29.83 1010 10 16 0.02 0.51
11:55 am 11:55 Cloudy with Light Rain 48 8.9 46 7.9 94 94 S 15 24 29.83 1010 5 8 0.04 1.02
12:15 pm 12:15 Cloudy with Light Rain 48 9 47 8.1 94 94 S 14 22 29.83 1010 7 11 0.02 0.51
12:35 pm 12:35 Cloudy with Rain 49 9.2 47 8.4 95 95 S 15 24 29.80 1009 7 11 0.04 1.02
12:55 pm 12:55 Cloudy with Light Rain 49 9.6 48 8.7 94 94 S 14 22 29.80 1009 10 16 0.06 1.52
1:15 pm 13:15 Cloudy with Light Rain 49 9.7 48 8.8 94 94 S 14 22 29.77 1008 10 16 0.00 0.00
1:35 pm 13:35 Cloudy with Light Rain 50 9.8 48 8.9 94 94 SSW 15 24 29.77 1008 10 16 0.01 0.25
1:55 pm 13:55 Cloudy with Light Rain 50 9.8 48 8.9 94 94 S 15 24 29.77 1008 10 16 0.02 0.51
2:15 pm 14:15 Cloudy with Light Rain 50 9.9 48 9 94 94 S 15 24 29.74 1007 10 16 0.01 0.25
2:35 pm 14:35 Cloudy with Rain 50 10 48 9.1 94 94 S 15 24 29.74 1007 7 11 0.02 0.51
2:55 pm 14:55 Cloudy with Light Rain 50 10.1 48 9.1 94 94 S 13 20 29.71 1006 7 11 0.05 1.27
3:15 pm 15:15 Cloudy with Light Rain 50 10.1 48 9.1 94 94 S 13 20 29.71 1006 7 11 0.02 0.51
3:35 pm 15:35 Cloudy with Light Rain 51 10.4 49 9.3 93 93 SSW 16 26 29.74 1007 10 16 0.03 0.76
4:15 pm 16:15 Cloudy with Light Rain 51 10.3 49 9.3 94 94 S 12 19 29.71 1006 10 16 0.00 0.00
4:35 pm 16:35 Cloudy 50 10 49 9.2 95 95 S 9 15 29.68 1005 10 16 0.01 0.25
4:55 pm 16:55 Cloudy with Light Rain 50 10.2 49 9.2 94 94 SSW 12 19 29.68 1005 10 16 0.01 0.25
5:15 pm 17:15 Cloudy with Drizzle 51 10.3 49 9.2 93 93 SSW 15 24 29.71 1006 7 11 0.00 0.00
5:35 pm 17:35 Cloudy with Light Rain 42 5.6 40 4.5 93 93 WNW 15 24 29.77 1008 2 3 0.02 0.51
5:55 pm 17:55 Cloudy with Light Rain 41 5.1 39 4 93 93 W 12 19 29.77 1008 5 8 0.04 1.02
6:15 pm 18:15 Cloudy with Light Rain 41 4.8 38 3.6 92 92 W 9 15 29.77 1008 10 16 0.00 0.00
6:35 pm 18:35 Cloudy with Drizzle 40 4.4 37 3 91 91 W 10 17 29.77 1008 10 16 0.00 0.00
6:55 pm 18:55 Cloudy 39 4 37 2.8 92 92 WNW 6 9 29.77 1008 10 16 0.00 0.00
7:15 pm 19:15 Cloudy 39 3.8 37 2.7 93 93 Calm 29.77 1008 7 11 0.00 0.00
7:35 pm 19:35 Cloudy with Drizzle 38 3.3 37 2.6 95 95 W 6 9 29.77 1008 4 6 0.00 0.00
7:55 pm 19:55 Cloudy with Drizzle 37 2.9 36 2.2 95 95 WSW 7 11 29.80 1009 4 6 0.00 0.00
8:15 pm 20:15 Cloudy with Drizzle 37 2.5 35 1.9 96 96 WNW 3 6 29.77 1008 2 3 0.00 0.00
8:35 pm 20:35 Cloudy with Light Rain 36 2 34 1.2 95 95 NW 7 11 29.77 1008 3 4 0.00 0.00
8:55 pm 20:55 Cloudy with Light Rain 35 1.7 34 0.9 94 94 WNW 7 11 29.80 1009 3 4 0.01 0.25
9:15 pm 21:15 Cloudy with Light Rain 34 1.3 33 0.4 94 94 WNW 5 7 29.80 1009 4 6 0.00 0.00
9:35 pm 21:35 Cloudy with Light Rain 34 1.1 32 0.2 94 94 NW 7 11 29.80 1009 7 11 0.00 0.00
9:55 pm 21:55 Cloudy with Light Rain 34 0.9 32 0.1 94 94 W 9 15 29.83 1010 5 8 0.00 0.00
10:15 pm 22:15 Cloudy with Light Rain 33 0.4 31 -0.4 94 94 WNW 6 9 29.80 1009 3 4 0.01 0.25
10:35 pm 22:35 Cloudy with Light Rain 33 0.3 31 -0.4 95 95 WNW 7 11 29.80 1009 2 3 0.02 0.51
10:55 pm 22:55 Cloudy with Light Rain 33 0.3 31 -0.6 94 94 W 7 11 29.83 1010 4 6 0.02 0.51
11:15 pm 23:15 Cloudy with Light Snow 32 0 30 -1 93 93 WNW 7 11 29.80 1009 3 5 0.00 0.00
11:35 pm 23:35 Cloudy with Light Snow 32 -0.1 30 -1 94 94 NW 7 11 29.83 1010 4 6 0.00 0.00
11:55 pm 23:55 Cloudy with Light Snow 32 -0.2 29 -1.4 92 92 WNW 10 17 29.83 1010 4 6 0.00 0.00

Powered by AerisWeather